Weather History for Pakanbaru, Indonesia

Change the Weather History Date:

Wednesday, July 3, 2013

  Actual Average Record
Temperature  
Mean Temperature 84 °F -  
Max Temperature 92 °F - - ()
Min Temperature 75 °F - - ()
Cooling Degree Days 18    
Growing Degree Days 34 (Base 50)    
Moisture  
Dew Point 74 °F    
Average Humidity 72    
Maximum Humidity 100    
Minimum Humidity 45    
Precipitation  
Precipitation 0.04 in - - ()
Sea Level Pressure  
Sea Level Pressure 29.73 in    
Wind  
Wind Speed 1 mph ()    
Max Wind Speed 7 mph    
Max Gust Speed -    
Visibility 3.7 miles    
Events Rain    
T = Trace of Precipitation, MM = Missing Value Source: Averaged Metar Reports

Daily Weather History Graph

Daily Weather History Graph

Search for Another Location

Airport:

Trip Planner

Search our weather history database for the weather conditions in past years. The results will help you decide how hot, cold, wet, or windy it might be!

Date:

Astronomy

Jul. 03, 2013 Rise Set
Actual Time 6:14 AM WIT 6:22 PM WIT
Civil Twilight 5:51 AM WIT 6:45 PM WIT
Nautical Twilight 5:25 AM WIT 7:11 PM WIT
Astronomical Twilight 4:59 AM WIT 7:37 PM WIT
Moon 2:03 AM WIT (7/3) 2:27 PM WIT (7/3)
Length of Visible Light 12h 53m
Length of Day
12h 08m
Waning Crescent, 22% of the Moon is Illuminated
Jul 3
Waning Crescent
Jul 8
New
Jul 16
First Quarter
Jul 23
Full
Jul 30
Last Quarter

Hourly Weather History & Observations

Time (WIT) Temp. Heat Index Dew Point Humidity Pressure Visibility Wind Dir Wind Speed Gust Speed Precip Events Conditions
1:00 AM 77 °F - 76 °F 96% 29.80 in 4 mi Calm Calm - - Rain Light Rain
4:00 AM 77 °F - 76 °F 94% 29.75 in 4 mi Calm Calm - -   Partly Cloudy
6:00 AM 75.2 °F - 75.2 °F 100% 29.74 in 2.5 mi Calm Calm - N/A   Partly Cloudy
7:00 AM 76 °F - 75 °F 95% 29.77 in - Calm Calm - -   Haze
7:00 AM 75.2 °F - 75.2 °F 100% 29.77 in 2.5 mi Calm Calm - N/A   Partly Cloudy
8:00 AM 77.0 °F - 75.2 °F 94% 29.77 in 3.1 mi Calm Calm - N/A   Partly Cloudy
8:30 AM 77.0 °F - 75.2 °F 94% 29.77 in 3.1 mi Calm Calm - N/A   Haze
9:00 AM 78.8 °F - 75.2 °F 89% 29.77 in 2.5 mi Calm Calm - N/A   Haze
9:30 AM 82.4 °F 89.5 °F 75.2 °F 79% 29.80 in 3.1 mi Calm Calm - N/A   Haze
10:00 AM 82 °F - 74 °F 71% 29.79 in 3 mi Calm Calm - -   Scattered Clouds
10:00 AM 82.4 °F 88.2 °F 73.4 °F 74% 29.80 in 3.1 mi Calm Calm - N/A   Haze
10:30 AM 84.2 °F 92.3 °F 75.2 °F 74% 29.77 in 4.3 mi Calm Calm - N/A   Partly Cloudy
11:00 AM 86.0 °F 95.1 °F 75.2 °F 70% 29.77 in 4.3 mi Calm Calm - N/A   Partly Cloudy
11:30 AM 86.0 °F 93.4 °F 73.4 °F 66% 29.77 in 5.0 mi Calm Calm - N/A   Scattered Clouds
12:00 PM 87.8 °F 95.6 °F 73.4 °F 62% 29.74 in 3.1 mi SW 4.6 mph - N/A   Haze
12:30 PM 89.6 °F 96.2 °F 71.6 °F 55% 29.74 in 4.3 mi Calm Calm - N/A   Scattered Clouds
1:00 PM 89 °F - 72 °F 49% 29.73 in 3 mi West 4.6 mph - -   Haze
1:00 PM - - - N/A% - 3.1 mi SW 3.5 mph - N/A   Unknown
1:30 PM 89.6 °F 96.2 °F 71.6 °F 55% 29.71 in 5.6 mi Calm Calm - N/A   Scattered Clouds
2:00 PM 91.4 °F 98.4 °F 71.6 °F 52% 29.68 in 4.3 mi ENE 5.8 mph - N/A   Mostly Cloudy
2:30 PM 91.4 °F 100.1 °F 73.4 °F 55% 29.68 in 4.3 mi WNW 5.8 mph - N/A   Mostly Cloudy
3:00 PM 91.4 °F 98.4 °F 71.6 °F 52% 29.68 in 4.3 mi Calm Calm - N/A   Mostly Cloudy
3:30 PM 91.4 °F 98.4 °F 71.6 °F 52% 29.68 in 4.3 mi Calm Calm - N/A   Mostly Cloudy
4:00 PM 91 °F - 72 °F 45% 29.68 in 4 mi NW 5.8 mph - -   Mostly Cloudy
4:00 PM 91.4 °F 98.4 °F 71.6 °F 52% 29.68 in 5.0 mi NW 4.6 mph - N/A   Mostly Cloudy
4:30 PM 91.4 °F 98.4 °F 71.6 °F 52% 29.68 in 5.0 mi NNW 6.9 mph - N/A   Scattered Clouds
5:00 PM 89.6 °F 98.2 °F 73.4 °F 59% 29.65 in 4.3 mi Calm Calm - N/A   Partly Cloudy
6:00 PM 87.8 °F 99.7 °F 77.0 °F 70% 29.68 in 4.3 mi Calm Calm - N/A   Partly Cloudy
7:00 PM 86 °F - 77 °F 68% 29.70 in 4 mi Calm Calm - -   Partly Cloudy
7:00 PM 86.0 °F 96.9 °F 77.0 °F 74% 29.68 in 3.1 mi Calm Calm - N/A   Haze
8:00 PM 84.2 °F 94.1 °F 77.0 °F 79% 29.74 in 3.1 mi Calm Calm - N/A   Haze
9:00 PM 82.4 °F 90.9 °F 77.0 °F 84% 29.74 in 3.1 mi Calm Calm - N/A   Haze
10:00 PM 82 °F - 76 °F 78% 29.78 in 3 mi Calm Calm - -   Haze